Hourly Data Report for April 14, 2016

MIRAMICHI RCS
NEW BRUNSWICK

47°00'34.000" N
65°27'54.000" W
33.00 m
8100989
71744
ACQ

Download Data

Hourly Data (April 2016)
Hourly Data Report for April 14, 2016
TIME
LST
Temp Definition
°C
Dew Point Definition
°C
Rel Hum Definition
%
Precip. Amount Definition
mm

Wind Dir Definition
10's deg

Wind Spd Definition
km/h
Visibility Definition
km
Stn Press Definition
kPa
Hmdx Definition


Wind Chill Definition


Weather Definition


00:00 0.5 -5.6 63 0.0 33 5   102.45     LegendNANA
01:00 -0.3 -6.2 64 0.0 36 3   102.45   -1 LegendNANA
02:00 -0.4 -6.6 63 0.0 31 6   102.45   -2 LegendNANA
03:00 -1.1 -6.4 68 0.0 30 7   102.44   -4 LegendNANA
04:00 -1.0 -6.6 66 0.0 31 7   102.47   -4 LegendNANA
05:00 -0.7 -7.1 62 0.0 33 7   102.48   -3 LegendNANA
06:00 -1.0 -7.0 64 0.0 33 7   102.53   -4 LegendNANA
07:00 0.2 -6.9 59 0.0 35 10   102.59     LegendNANA
08:00 2.2 -6.5 53 0.0 35 11   102.65     LegendNANA
09:00 4.2 -7.0 44 0.0 35 11   102.68     LegendNANA
10:00 5.4 -8.2 37 0.0 35 12   102.67     LegendNANA
11:00 5.7 -9.2 33 0.0 36 14   102.62     LegendNANA
12:00 7.1 -9.1 30 0.0 3 16   102.55     LegendNANA
13:00 8.2 -8.7 29 0.0 1 12   102.54     LegendNANA
14:00 8.1 -11.6 23 0.0 2 14   102.52     LegendNANA
15:00 8.1 -9.0 29 0.0 5 14   102.51     LegendNANA
16:00 7.8 -7.9 32 0.0 6 15   102.51     LegendNANA
17:00 7.2 -8.6 32 0.0 7 15   102.51     LegendNANA
18:00 5.2 -6.8 42 0.0 6 21   102.56     LegendNANA
19:00 2.6 -6.6 51 0.0 7 21   102.63     LegendNANA
20:00 0.6 -5.7 63 0.0 7 12   102.68     LegendNANA
21:00 -0.4 -5.5 68 0.0 2 5   102.71   -2 LegendNANA
22:00 -1.1 -5.6 72 0.0 34 5   102.72   -3 LegendNANA
23:00 -1.6 -5.8 73 0.0 32 4   102.69   -3 LegendNANA

Notes on Data Quality.

Legend

  • E = Estimated
  • M = Missing
  • NA = Not Available*
  • [empty] = Indicates an unobserved value
Date modified: